Regional Weather Roundup
Issued by NWS Northern Indiana

Home | Current Version | Previous Version | Text Only | Print | Product List | Glossary On
Versions: 1 2 3 4 5 6 7 8 9 10 11 12 13 14 15 16 17 18 19 20 21 22 23 24 25 26 27 28 29 30 31 32 33 34 35 36 37 38 39 40 41 42 43 44 45 46 47 48 49 50
000
ASUS43 KIWX 310410
RWRIWX

KIWX WEATHER ROUNDUP
NATIONAL WEATHER SERVICE NORTHERN INDIANA
1200 AM EDT SUN AUG 31 2014

NOTE: "FAIR" INDICATES FEW OR NO CLOUDS BELOW 12,000 FEET WITH NO
SIGNIFICANT WEATHER AND/OR OBSTRUCTIONS TO VISIBILITY.

* THESE STATIONS ARE NOT UNDER NWS QUALITY CONTROL. THEY ALSO MAY NOT
  REPORT WEATHER SUCH AS PRECIPITATION OR FOG.

INZ001>027-310500-
NORTHERN INDIANA

CITY           SKY/WX    TMP DP  RH WIND       PRES   REMARKS
GARY*          CLOUDY    73  70  88 S3        29.93R
VALPARAISO     CLOUDY    71  68  90 SW8       29.95R
MICHIGAN CITY* CLOUDY    70  68  94 S6        29.94R
LAPORTE*       CLOUDY    71  70  96 SW8       29.95R
KNOX*          CLOUDY    72  68  89 S6        29.94R
SOUTH BEND     CLOUDY    73  70  90 SW8       29.94R
GOSHEN         CLOUDY    75  70  84 SW14G20   29.94S
MONTICELLO*    CLOUDY    73  71  91 S7        29.95S
LOGANSPORT*    CLOUDY    72  68  88 SW7       29.97S
ROCHESTER*     CLOUDY    75  70  83 SW8G18    29.96S
WARSAW*        CLOUDY    73  70  88 SW5       29.96S
ANGOLA*        MOCLDY    75  66  73 SW12      29.95F
FORT WAYNE     CLOUDY    74  70  87 SW10      29.98R
HUNTINGTON*    CLOUDY    73  70  90 SW5       29.98R
PERU/GRISSOM   CLOUDY    73  73 100 SW15      29.96S
MARION*        CLOUDY    72  68  88 SW9       30.00R

$$
INZ028>050-310500-
CENTRAL INDIANA

CITY           SKY/WX    TMP DP  RH WIND       PRES   REMARKS
LAFAYETTE      CLOUDY    73  70  90 W8        29.97R
KOKOMO*        CLOUDY    73  68  83 SW14      29.98F
MUNCIE*        CLOUDY    73  67  81 S9G18     30.00S
INDIANAPOLIS   CLOUDY    72  68  87 S9        30.00S

$$
MIZ043>046-050>051-056>058-064>065-071>073-077>080-310500-
SOUTHWEST LOWER MICHIGAN

CITY           SKY/WX    TMP DP  RH WIND       PRES   REMARKS
BATTLE CREEK   CLOUDY    70  67  90 SW10      29.93R
BENTON HARBOR  MOCLDY    72  68  87 S5        29.91R
COLDWATER*     HVY RAIN  69  67  94 SW8G18    29.96R
HILLSDALE*     CLOUDY    76  70  84 W5G16     29.97R
HOLLAND        PTCLDY    71  67  87 W7        29.91R
GRAND RAPIDS   MOCLDY    74  70  87 SW10      29.91R
KALAMAZOO      CLOUDY    69  66  90 S8        29.93R
STURGIS*       LGT RAIN  70  68  94 CALM      29.95F
THREE RIVERS*  CLOUDY    70  68  95 SW5       29.93F

$$
OHZ001>008-015>018-024>025-310500-
NORTHWEST OHIO

CITY           SKY/WX    TMP DP  RH WIND       PRES   REMARKS
WAUSEON*       MOCLDY    75  70  83 SW13G18   29.96F
DEFIANCE       CLOUDY    76  69  79 SW8       29.97R
FINDLAY        CLOUDY    76  69  79 SW10      29.98S
TOLEDO EXPRESS CLOUDY    76  68  76 SW10G23   29.96R
TOLEDO METCALF CLOUDY    77  68  73 SW12      29.97R
LIMA           CLOUDY    76  68  76 SW9       30.00S

$$
&&


USA.gov is the U.S. government's official web portal to all federal, state and local government web resources and services.